Cortez, CO

8:54 AM MST on December 14, 2019 (GMT -0700)
Cortez Municipal

Weather History for KCEZ - November, 2019

Change the Weather History Date:

Saturday, November 16, 2019

  Actual Average Record
Temperature  
Mean Temperature 42 °F 37 °F  
Max Temperature 62 °F 51 °F 67 °F (2016)
Min Temperature 22 °F 22 °F 15 °F (1997)
Degree Days  
Heating Degree Days 23 28  
Month to date heating degree days 420 406  
Since 1 July heating degree days 1185 1088  
Cooling Degree Days 0 0  
Month to date cooling degree days 0 0  
Year to date cooling degree days 547 426  
Moisture  
Dew Point 15 °F    
Average Humidity 41    
Maximum Humidity 62    
Minimum Humidity 20    
Precipitation  
Precipitation 0.00 in 0.05 in 0.69 in (2015)
Month to date precipitation 0.00 0.71  
Year to date precipitation 10.07 12.13  
Sea Level Pressure  
Sea Level Pressure 30.15 in    
Wind  
Wind Speed 6 mph (ENE)    
Max Wind Speed 16 mph    
Max Gust Speed 21 mph    
Visibility 10 miles    
Events      
T = Trace of Precipitation, MM = Missing Value Source: NWS Daily Summary

Daily Weather History Graph

Daily Weather History Graph

Search for Another Location

Airport or City:

Astronomy

Nov. 16, 2019 Rise Set
Actual Time 6:54 AM MST 5:03 PM MST
Civil Twilight 6:26 AM MST 5:31 PM MST
Nautical Twilight 5:55 AM MST 6:02 PM MST
Astronomical Twilight 5:24 AM MST 6:33 PM MST
Moon 8:41 PM MST (11/16) 10:49 AM MST (11/16)
Length of Visible Light 11h 04m
Length of Day
10h 08m
Waning Gibbous, 82% of the Moon is Illuminated
Nov 16
Waning Gibbous
Nov 19
Last Quarter
Nov 26
New
Dec 3
First Quarter
Dec 11
Full

Hourly Weather History & Observations

Time (MST) Temp. Windchill Dew Point Humidity Pressure Visibility Wind Dir Wind Speed Gust Speed Precip Events Conditions
12:53 AM 28.0 °F 21.7 °F 12.0 °F 51% 30.14 in 10.0 mi ENE 5.8 mph - N/A   Clear
1:53 AM 25.0 °F 19.3 °F 10.9 °F 55% 30.16 in 10.0 mi NE 4.6 mph - N/A   Clear
2:53 AM 24.1 °F 18.2 °F 12.0 °F 60% 30.15 in 10.0 mi ENE 4.6 mph - N/A   Clear
3:53 AM 21.9 °F 17.2 °F 10.0 °F 60% 30.15 in 10.0 mi ENE 3.5 mph - N/A   Clear
4:53 AM 25.0 °F 17.1 °F 12.0 °F 58% 30.15 in 10.0 mi ENE 6.9 mph - N/A   Clear
5:53 AM 25.0 °F 19.3 °F 12.9 °F 60% 30.22 in 10.0 mi ENE 4.6 mph - N/A   Clear
6:53 AM 27.0 °F - 12.9 °F 56% 30.23 in 10.0 mi Calm Calm - N/A   Clear
7:53 AM 30.0 °F - 15.1 °F 54% 30.23 in 10.0 mi Calm Calm - N/A   Clear
9:53 AM 46.9 °F - 19.9 °F 34% 30.19 in 10.0 mi ESE 3.5 mph - N/A   Clear
10:53 AM 53.1 °F - 19.9 °F 27% 30.17 in 10.0 mi Calm Calm - N/A   Clear
11:53 AM 59.0 °F - 19.9 °F 22% 30.11 in 10.0 mi SW 8.1 mph - N/A   Clear
12:53 PM 61.0 °F - 19.9 °F 21% 30.06 in 10.0 mi West 12.7 mph - N/A   Clear
1:53 PM 61.0 °F - 19.9 °F 21% 30.06 in 10.0 mi SSW 12.7 mph 19.6 mph N/A   Clear
2:53 PM 61.0 °F - 19.0 °F 20% 30.04 in 10.0 mi West 11.5 mph - N/A   Clear
3:53 PM 57.9 °F - 19.0 °F 22% 30.07 in 10.0 mi West 12.7 mph - N/A   Clear
4:53 PM 53.1 °F - 17.1 °F 24% 30.11 in 10.0 mi West 8.1 mph - N/A   Clear
5:53 PM 45.0 °F 43.5 °F 16.0 °F 31% 30.16 in 10.0 mi SSW 3.5 mph - N/A   Clear
6:53 PM 37.0 °F - 14.0 °F 39% 30.19 in 10.0 mi Calm Calm - N/A   Clear
7:53 PM 37.9 °F 32.1 °F 16.0 °F 41% 30.19 in 10.0 mi NE 8.1 mph - N/A   Clear
8:53 PM 33.1 °F 28.7 °F 15.1 °F 48% 30.20 in 10.0 mi East 4.6 mph - N/A   Clear
9:53 PM 30.0 °F 24.1 °F 14.0 °F 51% 30.18 in 10.0 mi ENE 5.8 mph - N/A   Clear
10:53 PM 28.0 °F 19.3 °F 12.9 °F 53% 30.18 in 9.0 mi East 9.2 mph - N/A   Clear
11:53 PM 25.0 °F 17.1 °F 12.0 °F 58% 30.19 in 10.0 mi East 6.9 mph - N/A   Clear